GW1265 Weather Reports


Display with metric or nautical units.
time (UTC)temp
F
wind
direction
speed
MPH
gust
MPH
rain 1hr
in
rain 24hr
in
rain mn
in
humidity
%
barometer
mb
20260507180024 58 248 6.0 18.0 0.00 0.01 0.97 10 995.5
20260507175004 57 0 3.0 15.0 0.00 0.01 0.97 10 996.4
20260507174453 58 293 4.0 15.0 0.00 0.01 0.97 10 996.8
20260507173944 57 45 3.0 15.0 0.00 0.01 0.97 10 996.6
20260507173434 58 68 4.0 15.0 0.00 0.01 0.97 10 996.6
20260507172923 58 90 3.0 16.0 0.00 0.01 0.97 10 996.9
20260507172414 57 90 4.0 16.0 0.00 0.01 0.97 10 996.9
20260507171904 57 270 7.0 16.0 0.00 0.01 0.97 10 997.2
20260507171353 57 225 5.0 16.0 0.00 0.01 0.97 10 997.0
20260507170844 57 338 7.0 16.0 0.00 0.01 0.97 10 997.2
20260507165822 57 23 6.0 23.0 0.00 0.01 0.97 10 997.9
20260507165313 57 90 4.0 17.0 0.00 0.01 0.97 10 997.7
20260507164802 57 0 4.0 24.0 0.00 0.01 0.97 10 997.5
20260507164252 57 158 4.0 24.0 0.00 0.01 0.97 10 997.3
20260507163233 57 135 4.0 22.0 0.00 0.01 0.97 10 997.4
20260507162722 57 180 3.0 16.0 0.00 0.01 0.97 10 997.1
20260507162213 57 113 5.0 16.0 0.00 0.01 0.97 10 997.0
20260507161702 56 203 5.0 16.0 0.00 0.01 0.97 10 996.5
20260507161153 56 293 4.0 15.0 0.00 0.01 0.97 10 996.6
20260507155622 56 248 4.0 14.0 0.00 0.01 0.97 10 996.2
20260507154052 56 270 4.0 9.0 0.00 0.01 0.97 10 996.2
20260507153541 56 203 3.0 8.0 0.00 0.01 0.97 10 996.9
20260507153031 55 248 4.0 9.0 0.00 0.01 0.97 10 997.2
20260507152011 57 23 4.0 16.0 0.00 0.01 0.97 10 998.1
20260507151501 57 135 4.0 17.0 0.00 0.01 0.97 10 998.3
20260507150441 57 338 4.0 15.0 0.00 0.01 0.97 10 998.9
20260507145930 57 45 6.0 15.0 0.00 0.01 0.97 10 999.0
20260507145420 57 203 6.0 16.0 0.00 0.01 0.97 10 998.8
20260507144909 57 225 6.0 16.0 0.00 0.01 0.97 10 998.8
20260507144400 57 203 7.0 18.0 0.00 0.01 0.97 10 998.4
20260507143850 57 135 5.0 18.0 0.00 0.01 0.97 10 997.5
20260507143340 57 248 4.0 16.0 0.00 0.01 0.97 10 997.1
20260507142831 57 23 9.0 22.0 0.00 0.01 0.97 10 996.7
20260507141809 57 225 8.0 20.0 0.00 0.01 0.97 10 996.8
20260507141259 58 248 7.0 18.0 0.00 0.01 0.97 10 997.1
20260507140749 58 203 4.0 17.0 0.00 0.01 0.97 10 997.5
20260507140240 58 293 4.0 24.0 0.00 0.01 0.97 10 996.7
20260507135729 58 293 8.0 27.0 0.00 0.01 0.97 10 997.0
20260507135219 58 23 12.0 31.0 0.00 0.01 0.97 10 996.6
20260507134708 58 225 14.0 31.0 0.00 0.01 0.97 10 996.3
20260507134159 58 68 11.0 27.0 0.00 0.01 0.97 10 996.3
20260507133649 58 203 17.0 24.0 0.00 0.01 0.97 10 996.3
20260507133138 58 248 14.0 24.0 0.00 0.01 0.97 10 996.7
20260507132628 58 90 14.0 24.0 0.00 0.01 0.97 10 996.6
20260507132118 58 338 12.0 24.0 0.00 0.01 0.97 10 996.5
20260507131609 58 248 15.0 20.0 0.00 0.01 0.97 10 996.7
20260507131058 58 293 7.0 17.0 0.00 0.01 0.97 10 997.2
20260507130548 58 270 6.0 21.0 0.00 0.01 0.97 10 997.7
20260507130038 58 270 5.0 23.0 0.00 0.01 0.97 10 997.4
20260507125528 58 293 11.0 23.0 0.00 0.01 0.97 10 997.3
20260507125018 58 225 13.0 23.0 0.00 0.01 0.97 10 997.0
20260507123958 58 248 11.0 21.0 0.00 0.01 0.97 10 996.8
20260507123448 58 180 8.0 22.0 0.00 0.01 0.97 10 996.6
20260507122937 58 248 12.0 22.0 0.00 0.01 0.97 10 996.5
20260507122427 59 225 8.0 21.0 0.00 0.01 0.97 10 996.2
20260507121916 59 203 4.0 13.0 0.00 0.01 0.97 10 995.9
20260507121407 59 225 4.0 15.0 0.00 0.01 0.97 10 995.7
20260507120857 59 315 5.0 15.0 0.00 0.01 0.97 10 995.8
20260507120347 59 68 6.0 15.0 0.00 0.01 0.97 10 995.5
20260507115837 59 135 4.0 11.0 0.00 0.01 0.97 10 995.6
20260507115326 59 0 4.0 11.0 0.00 0.01 0.97 10 995.8
20260507114816 59 225 6.0 13.0 0.00 0.01 0.97 10 996.6
20260507113757 59 45 4.0 20.0 0.00 0.01 0.97 10 995.4
20260507113246 59 0 4.0 17.0 0.00 0.01 0.97 10 994.8
20260507112736 60 248 5.0 17.0 0.00 0.01 0.97 10 994.8
20260507112225 60 0 6.0 17.0 0.00 0.01 0.97 10 995.8
20260507111205 61 135 6.0 20.0 0.00 0.01 0.97 10 994.9
20260507110655 60 45 6.0 20.0 0.00 0.01 0.97 10 994.2
20260507110146 61 203 8.0 21.0 0.00 0.01 0.97 10 993.0
20260507105634 60 248 9.0 23.0 0.00 0.01 0.97 10 992.6
20260507105125 61 203 10.0 32.0 0.00 0.01 0.97 10 992.6
20260507104616 61 315 14.0 41.0 0.00 0.01 0.97 10 993.0
20260507104105 61 225 23.0 47.0 0.00 0.01 0.97 10 993.1
20260507103555 62 203 27.0 47.0 0.00 0.01 0.97 10 992.0
20260507103045 62 293 21.0 45.0 0.00 0.01 0.97 10 990.9
20260507102535 62 0 21.0 45.0 0.00 0.01 0.97 10 990.7
20260507102024 62 180 21.0 39.0 0.00 0.01 0.97 10 990.6
20260507101515 62 225 28.0 36.0 0.00 0.01 0.97 10 991.6
20260507101004 63 293 17.0 36.0 0.00 0.01 0.97 10 992.4
20260507100455 63 225 24.0 36.0 0.00 0.01 0.97 10 992.7
20260507095944 63 270 15.0 34.0 0.01 0.01 0.97 10 992.9
20260507095433 63 248 13.0 30.0 0.01 0.01 0.97 10 993.0
20260507093903 63 225 9.0 30.0 0.01 0.01 0.97 10 993.0
20260507093354 63 45 12.0 27.0 0.01 0.01 0.97 10 992.9
20260507092333 64 270 11.0 25.0 0.01 0.01 0.97 10 992.7
20260507091823 64 225 8.0 27.0 0.01 0.01 0.97 10 993.3
20260507091313 64 293 17.0 27.0 0.01 0.01 0.97 10 993.7
20260507090802 64 23 8.0 27.0 0.01 0.01 0.97 10 993.8
20260507090252 64 270 9.0 27.0 0.00 0.00 0.96 10 994.4
20260507085742 65 203 15.0 25.0 0.00 0.00 0.96 10 994.6
20260507084722 65 203 13.0 20.0 0.00 0.00 0.96 10 995.2
20260507083702 65 225 7.0 17.0 0.00 0.00 0.96 10 995.0
20260507083151 65 293 5.0 17.0 0.00 0.00 0.96 10 994.9
20260507082641 65 180 11.0 17.0 0.00 0.00 0.96 10 994.6
20260507082132 65 113 8.0 14.0 0.00 0.00 0.96 10 994.1
20260507081621 65 225 5.0 14.0 0.00 0.00 0.96 10 994.0
20260507080601 65 338 4.0 13.0 0.00 0.00 0.96 10 993.5
20260507080051 66 293 5.0 16.0 0.00 0.00 0.96 10 993.8
20260507075541 66 248 5.0 18.0 0.00 0.00 0.96 10 994.3
20260507075031 65 68 4.0 18.0 0.00 0.00 0.96 10 993.6
20260507074011 66 203 5.0 11.0 0.00 0.00 0.96 10 993.2
20260507072951 66 90 2.0 9.0 0.00 0.00 0.96 10 993.3
20260507072440 66 68 2.0 9.0 0.00 0.00 0.96 10 993.7
20260507071930 66 45 3.0 15.0 0.00 0.00 0.96 10 993.1
20260507071420 66 180 3.0 15.0 0.00 0.00 0.96 10 993.2
20260507070358 67 293 5.0 0.0 0.00 0.00 0.96 10 993.3
20260507070155 67 203 7.0 0.0 0.00 0.00 0.96 10 993.2
20260507065541 67 293 7.0 17.0 0.01 0.96 0.96 10 992.9
20260507065031 67 270 9.0 14.0 0.01 0.96 0.96 10 993.2
20260507064521 66 315 5.0 11.0 0.01 0.96 0.96 10 993.3
20260507064011 66 135 4.0 11.0 0.01 0.96 0.96 10 992.9
20260507062952 67 293 2.0 8.0 0.01 0.96 0.96 10 992.7
20260507061931 67 293 3.0 11.0 0.00 0.94 0.94 10 992.5
20260507060910 67 225 4.0 8.0 0.00 0.94 0.94 10 992.6
20260507055851 67 180 2.0 6.0 0.00 0.94 0.94 10 992.9
20260507055340 67 135 3.0 6.0 0.00 0.94 0.94 10 992.9
20260507054830 67 158 1.0 7.0 0.00 0.94 0.94 10 992.8
20260507054320 67 23 2.0 9.0 0.01 0.94 0.94 10 992.8
20260507053809 67 68 4.0 11.0 0.01 0.94 0.94 10 992.7
20260507053259 68 203 4.0 11.0 0.01 0.94 0.94 10 992.3
20260507052750 68 248 4.0 11.0 0.01 0.94 0.94 10 992.5
20260507052240 68 248 4.0 11.0 0.01 0.94 0.94 10 992.7
20260507051730 68 203 4.0 11.0 0.04 0.94 0.94 10 992.6
20260507051219 68 180 4.0 13.0 0.34 0.94 0.94 10 992.7
20260507050709 67 180 4.0 14.0 0.65 0.94 0.94 10 992.6
20260507050158 67 135 4.0 14.0 0.80 0.94 0.94 10 992.2
20260507045139 67 270 5.0 29.0 0.92 0.94 0.94 10 992.0
20260507044629 68 248 10.0 29.0 0.91 0.93 0.93 10 992.0
20260507044118 68 225 12.0 20.0 0.92 0.93 0.93 10 991.8
20260507043609 68 113 2.0 17.0 0.93 0.93 0.93 10 992.2
20260507043105 68 270 2.0 20.0 0.93 0.93 0.93 10 991.8
20260507042549 68 338 8.0 20.0 0.93 0.93 0.93 10 991.7
20260507042037 68 338 11.0 15.0 0.93 0.93 0.93 10 991.8
20260507041538 68 338 10.0 16.0 0.87 0.87 0.87 10 992.4
20260507041018 67 270 4.0 30.0 0.45 0.45 0.51 10 992.6
20260507035448 65 113 7.0 17.0 0.06 0.06 0.06 10 991.1
20260507034938 68 113 5.0 14.0 0.02 0.02 0.02 10 991.4
20260507034431 75 270 2.0 13.0 0.01 0.01 0.01 10 990.9
20260507033916 75 315 2.0 16.0 0.00 0.00 0.00 10 990.6
20260507033407 76 338 9.0 17.0 0.00 0.00 0.00 10 990.8
20260507032857 76 338 13.0 17.0 0.00 0.00 0.00 10 990.0
20260507032346 76 0 9.0 11.0 0.00 0.00 0.00 10 990.2
20260507031836 76 315 8.0 9.0 0.00 0.00 0.00 10 990.7
20260507031326 77 0 7.0 11.0 0.00 0.00 0.00 10 990.3
20260507030816 77 0 4.0 11.0 0.00 0.00 0.00 10 990.8
20260507030306 76 338 4.0 7.0 0.00 0.00 0.00 10 990.9
20260507025756 76 338 4.0 9.0 0.00 0.00 0.00 10 991.2
20260507025246 77 315 4.0 9.0 0.00 0.00 0.00 10 991.3
20260507024736 77 338 5.0 9.0 0.00 0.00 0.00 10 991.4
20260507024225 77 338 6.0 9.0 0.00 0.00 0.00 10 991.4
20260507023716 77 338 7.0 11.0 0.00 0.00 0.00 10 991.6
20260507023206 78 315 7.0 14.0 0.00 0.00 0.00 10 992.4
20260507022146 78 0 8.0 16.0 0.00 0.00 0.00 10 992.3
20260507021636 78 338 12.0 16.0 0.00 0.00 0.00 10 992.3
20260507021125 78 338 11.0 16.0 0.00 0.00 0.00 10 992.1
20260507020615 78 0 11.0 15.0 0.00 0.00 0.00 10 992.4
20260507020106 78 338 8.0 15.0 0.00 0.00 0.00 10 992.5
20260507015555 77 338 8.0 13.0 0.00 0.00 0.00 10 992.3
20260507015045 77 338 7.0 11.0 0.00 0.00 0.00 10 992.7
20260507014024 77 338 8.0 11.0 0.00 0.00 0.00 10 993.0
20260507013515 77 338 8.0 13.0 0.00 0.00 0.00 10 992.7
20260507013005 77 0 8.0 13.0 0.00 0.00 0.00 10 992.6
20260507012454 77 338 9.0 13.0 0.00 0.00 0.00 10 992.6
20260507011945 77 0 5.0 11.0 0.00 0.00 0.00 10 992.5
20260507011433 77 23 4.0 11.0 0.00 0.00 0.00 10 992.9
20260507010924 77 338 6.0 14.0 0.00 0.00 0.00 10 992.8
20260507010414 78 0 7.0 16.0 0.00 0.00 0.00 10 992.9
20260507005903 78 0 9.0 17.0 0.00 0.00 0.00 10 992.8
20260507005353 79 338 8.0 17.0 0.00 0.00 0.00 10 992.8
20260507004842 78 338 12.0 18.0 0.00 0.00 0.00 10 992.7
20260507004334 79 338 13.0 18.0 0.00 0.00 0.00 10 993.2
20260507003822 80 0 8.0 15.0 0.00 0.00 0.00 10 993.2
20260507003313 79 338 7.0 11.0 0.00 0.00 0.00 10 993.6
20260507002804 79 0 7.0 9.0 0.00 0.00 0.00 10 993.8
20260507002253 79 338 5.0 8.0 0.00 0.00 0.00 10 994.0
20260507001743 79 0 4.0 8.0 0.00 0.00 0.00 10 993.8
20260507001232 78 338 5.0 8.0 0.00 0.00 0.00 10 993.7
20260507000723 78 338 4.0 8.0 0.00 0.00 0.00 10 993.6
20260507000212 78 0 4.0 9.0 0.00 0.00 0.00 10 993.6
20260506235702 78 338 7.0 11.0 0.00 0.00 0.00 10 993.3
20260506235152 78 338 8.0 14.0 0.00 0.00 0.00 10 993.2
20260506234642 78 0 9.0 14.0 0.00 0.00 0.00 10 993.2
20260506234132 78 23 7.0 14.0 0.00 0.00 0.00 10 993.0
20260506233622 78 0 8.0 14.0 0.00 0.00 0.00 10 993.0
20260506233111 78 0 7.0 14.0 0.00 0.00 0.00 10 992.9
20260506232602 78 338 8.0 14.0 0.00 0.00 0.00 10 992.9
20260506232057 78 23 8.0 14.0 0.00 0.00 0.00 10 992.8
20260506231541 78 338 10.0 14.0 0.00 0.00 0.00 10 992.8
20260506231030 78 0 10.0 13.0 0.00 0.00 0.00 10 992.5
20260506230521 78 0 8.0 11.0 0.00 0.00 0.00 10 992.5
20260506230013 78 338 8.0 13.0 0.00 0.00 0.00 10 992.6
20260506224955 78 338 8.0 11.0 0.00 0.00 0.00 10 992.6
20260506223930 78 0 8.0 11.0 0.00 0.00 0.00 10 992.6
20260506223421 79 0 8.0 11.0 0.00 0.00 0.00 10 992.8
20260506222910 79 338 8.0 13.0 0.00 0.00 0.00 10 992.4
20260506222401 79 338 9.0 16.0 0.00 0.00 0.00 10 992.3
20260506221850 79 338 9.0 16.0 0.00 0.00 0.00 10 992.0
20260506221340 79 0 10.0 14.0 0.00 0.00 0.00 10 991.8
20260506220831 79 23 10.0 15.0 0.00 0.00 0.00 10 992.0
20260506220319 80 23 8.0 15.0 0.00 0.00 0.00 10 992.2
20260506215300 80 0 9.0 16.0 0.00 0.00 0.00 10 992.1
20260506214749 80 23 11.0 16.0 0.00 0.00 0.00 10 991.9
20260506213729 81 338 11.0 16.0 0.00 0.00 0.00 10 991.9
20260506212709 81 338 11.0 16.0 0.00 0.00 0.00 10 992.1
20260506212159 81 0 10.0 16.0 0.00 0.00 0.00 10 992.1
20260506211649 81 0 11.0 16.0 0.00 0.00 0.00 10 992.2
20260506210628 82 23 11.0 15.0 0.00 0.00 0.00 10 992.2
20260506210119 82 45 11.0 18.0 0.00 0.00 0.00 10 992.2
20260506205609 83 0 11.0 18.0 0.00 0.00 0.00 10 992.2
20260506205058 83 0 14.0 18.0 0.00 0.00 0.00 10 992.5
20260506204548 83 338 10.0 16.0 0.00 0.00 0.00 10 993.1
20260506204038 83 315 10.0 17.0 0.00 0.00 0.00 10 993.3
20260506203528 83 0 14.0 17.0 0.00 0.00 0.00 10 993.1
20260506203018 83 338 12.0 17.0 0.00 0.00 0.00 10 993.1
20260506201447 84 0 8.0 16.0 0.00 0.00 0.00 10 993.3
20260506200427 84 0 12.0 23.0 0.00 0.00 0.00 10 993.4
20260506195917 85 23 15.0 23.0 0.00 0.00 0.00 10 993.2
20260506195407 85 0 13.0 21.0 0.00 0.00 0.00 10 993.3
20260506194857 85 0 11.0 17.0 0.00 0.00 0.00 10 993.2
20260506193836 85 23 11.0 22.0 0.00 0.00 0.00 10 992.9
20260506192816 86 0 13.0 23.0 0.00 0.00 0.00 10 993.0
20260506190736 86 338 15.0 20.0 0.00 0.00 0.00 10 993.0
20260506190226 86 338 11.0 17.0 0.00 0.00 0.00 10 993.3
20260506185716 86 338 10.0 17.0 0.00 0.00 0.00 10 993.1
20260506185206 86 338 8.0 15.0 0.00 0.00 0.00 10 993.6
20260506184656 85 0 8.0 15.0 0.00 0.00 0.00 10 993.3
20260506184146 86 338 11.0 15.0 0.00 0.00 0.00 10 993.4
20260506183634 85 315 10.0 16.0 0.00 0.00 0.00 10 993.3
20260506183125 85 0 6.0 16.0 0.00 0.00 0.00 10 993.7
20260506182614 85 315 11.0 16.0 0.00 0.00 0.00 10 993.5
20260506182106 86 338 8.0 14.0 0.00 0.00 0.00 10 993.4
20260506181555 85 0 11.0 15.0 0.00 0.00 0.00 10 993.5
20260506181046 85 315 8.0 15.0 0.00 0.00 0.00 10 993.7
20260506180541 86 338 8.0 15.0 0.00 0.00 0.00 10 993.7